Starlink 11665

operational
NORAD ID: 63549 Int'l Des: 2025-075 Owner: SPXS Country: US Constellation: starlink
LEOCIRCULAR

Über Starlink 11665

Beschreibung wird geladen...

Live-Position

3D-Globus wird geladen...

Nächste Überflüge

Höhenverlauf

Altitude vs Time

uPlot chart will show altitude changes over time

Zweizeiliger Elementsatz

1 63549U 25075B 25258.10072544 .00247854 00000-0 18608-2 0 9996
2 63549 42.9999 132.1407 0004455 240.0738 119.9688 15.71053977 25634
Epoch: 15. Sept. 2025 • Age: 10 hours

Aktueller Status

Höhe 363.5 km
Geschwindigkeit 7.69 km/s
Subsatellitenpunkt -37.98°S, 177.86°W
Startdatum 13. Apr. 2025
Alter 0.4 years
Typ internet

Technische Details

Klassifizierung Payload
Masse 960.00 kg
Trockenmasse 910.00 kg
Gesamtmasse 960.00 kg
Länge 0.30 m
Durchmesser 4.10 m
Spannweite 29.00 m
Form Box + pan
Hersteller SPXS
Bus-Typ Starlink V2MD
Phasenstatus In Orbit
Besitzer/Staat SPXS/US

Große Konstellationen

Loading constellations...